[[{"header":{"parameterUnit":"m.s-1","parameterCategory":1,"la1":30.2991,"la2":30.254,"lo1":-89.0895,"lo2":-89.0444,"dy":0.0017,"dx":0.0017,"nx":28,"ny":28,"refTime":"2025-04-11T21:00:00:Z","depth":0,"parameterNumber":2,"parameterNumberName":"U-component_of_WINDS"},"data":[0,0,0,0,0,0,0,0,0,0,0,0,0,0,0,0,0,0,0,0,0,0,0,0,0,0,0,0,0,0,0,0,0,0,0,0,0,0,0,0,0,0,0,0,0,0,0,0,0,0,0,0,0,0,0,0,0,0,0.6942,0.6942,0,0.6933,0.6933,0.6933,0.693,0.693,0.693,0.693,0.6917,0.6916,0.6916,0,0,0,0,0,0,0,0,0,0,0,0,0,0.6956,0.6956,0.6942,0.6942,0.6942,0.6933,0.6933,0.6932,0.693,0.693,0.693,0.693,0.6917,0.6916,0.6916,0,0,0,0,0,0,0,0,0,0,0,0,0,0.6949,0.6956,0.6942,0.694,0.694,0.6933,0.6933,0.6932,0.693,0.693,0.693,0.693,0.6917,0.6916,0.6916,0.6909,0,0,0.6914,0.6913,0,0,0,0,0,0,0,0,0.6949,0.6948,0.694,0.694,0.694,0.6933,0.6932,0.6925,0.693,0.6934,0.693,0.693,0.6922,0.6921,0.6918,0.6909,0.6908,0.6914,0.6913,0.6913,0.6913,0,0,0,0,0,0,0,0.695,0.6949,0.6938,0.694,0.694,0.6938,0.6938,0.6931,0.6927,0.6933,0.6933,0.6932,0.6921,0.6919,0.6918,0.6908,0.6914,0.6913,0.6913,0.6912,0.6894,0.6894,0,0,0,0,0,0,0.6951,0.6949,0.6939,0.6938,0.6945,0.6938,0.6937,0.6935,0.6927,0.6926,0.6932,0.6932,0.692,0.6919,0.6918,0.691,0.6913,0.6912,0.6912,0.6894,0.6894,0.6894,0,0,0,0,0,0,0.6951,0.695,0.6939,0.6944,0.6942,0.6938,0.6935,0.6935,0.6932,0.6926,0.6925,0.6931,0.692,0.6919,0.6912,0.691,0.6912,0.6911,0.6894,0.6894,0.6894,0.6895,0,0,0,0,0,0,0.6952,0.695,0.6948,0.6944,0.6942,0.6934,0.6935,0.6934,0.6932,0.6932,0.6925,0.6923,0.692,0.6913,0.6911,0.6909,0.6911,0.6894,0.6894,0.6894,0.6895,0.6895,0.6895,0,0,0,0,0,0.6952,0.6948,0.6948,0.6947,0.694,0.6934,0.6933,0.6931,0.6931,0.6929,0.6926,0.6924,0.6911,0.6912,0.691,0.6908,0.6894,0.6894,0.6894,0.6895,0.6895,0.6895,0,0,0,0,0,0,0.6951,0.6947,0.6947,0.6942,0.6939,0.6934,0.6931,0.693,0.6926,0.6925,0.6921,0.692,0.6914,0.691,0.6912,0.6902,0.6902,0.6902,0.6904,0.6904,0.6904,0.6904,0.691,0,0,0,0,0,0.695,0.6947,0.6944,0.6939,0.6938,0.6935,0.6932,0.6931,0.6927,0.6925,0.6921,0.6916,0.6911,0.6907,0.6902,0.6895,0.6894,0.6893,0.6892,0.6892,0.6891,0.6888,0.6888,0.6893,0.6893,0.6893,0,0,0.6948,0.6946,0.6944,0.6939,0.6936,0.6933,0.6933,0.6929,0.6926,0.6924,0.6918,0.6915,0.6909,0.6903,0.6899,0.6899,0.689,0.6892,0.6892,0.6891,0.6888,0.6887,0.6887,0.6893,0.6893,0.6893,0,0,0.6943,0.6941,0.6937,0.6935,0.6932,0.693,0.6929,0.6925,0.6923,0.6918,0.6916,0.6912,0.6903,0.69,0.6897,0.6892,0.689,0.689,0.6889,0.6886,0.6885,0.6885,0.6883,0.6883,0.689,0.689,0.689,0,0.694,0.6935,0.6935,0.6931,0.6929,0.6929,0.6925,0.6923,0.6917,0.6915,0.6916,0.6906,0.6902,0.6895,0.6894,0.6891,0.689,0.689,0.6886,0.6885,0.6885,0.6883,0.6883,0.689,0.689,0.689,0.689,0,0.6933,0.693,0.6927,0.6924,0.6921,0.6917,0.6916,0.6913,0.6913,0.6911,0.6905,0.6901,0.6895,0.6894,0.6892,0.6887,0.6887,0.6887,0.6887,0.6884,0.6883,0.6882,0.689,0.689,0.689,0.689,0,0,0.6924,0.6922,0.6921,0.692,0.6917,0.6914,0.6911,0.6907,0.6905,0.6902,0.6898,0.6892,0.6892,0.6889,0.6887,0.6884,0.6881,0.6884,0.6884,0.6884,0.6875,0.6875,0.6874,0.688,0.688,0.688,0.6876,0,0.6918,0.6912,0.6913,0.6907,0.6904,0.6905,0.6902,0.69,0.6898,0.6895,0.6893,0.6889,0.6889,0.6887,0.6885,0.6882,0.6879,0.6882,0.6876,0.6876,0.6877,0.6873,0.6873,0.6868,0.6875,0.6875,0.6875,0,0.6909,0.6908,0.6903,0.6901,0.69,0.6898,0.6895,0.6892,0.6889,0.6889,0.6886,0.6885,0.6881,0.6883,0.6877,0.6879,0.6877,0.6875,0.6875,0.6873,0.6875,0.6871,0.6867,0.6866,0.6874,0.6874,0.6874,0,0.6903,0.69,0.6897,0.6896,0.6894,0.6892,0.6892,0.6889,0.6888,0.6885,0.6884,0.688,0.6878,0.6875,0.6873,0.6874,0.6867,0.6868,0.6866,0.6866,0.6863,0.6863,0.6858,0.6863,0.6863,0.6863,0.6863,0,0.6896,0.6892,0.6894,0.6892,0.6888,0.6889,0.6885,0.6884,0.6883,0.688,0.688,0.6878,0.6876,0.6873,0.6871,0.6867,0.6865,0.6864,0.6864,0.6864,0.6864,0.6861,0.6861,0.6863,0.6863,0.6863,0.6863,0,0.6888,0.6889,0.6885,0.6885,0.6885,0.6883,0.6882,0.688,0.688,0.6876,0.6875,0.6874,0.6871,0.6869,0.6864,0.6863,0.6858,0.6858,0.6859,0.6859,0.6857,0.6857,0.6849,0.6848,0.6854,0.6854,0.6854,0,0.6882,0.688,0.6881,0.688,0.6879,0.6877,0.6876,0.6877,0.6876,0.6874,0.6872,0.6869,0.6866,0.6861,0.6859,0.6856,0.6855,0.6853,0.6854,0.6855,0.6855,0.6855,0.6854,0.6852,0.6852,0.6852,0.6852,0,0.6873,0.6874,0.6873,0.6872,0.6871,0.6871,0.687,0.6869,0.6869,0.6868,0.6865,0.6864,0.686,0.6857,0.6854,0.6852,0.6852,0.6852,0.6851,0.685,0.6851,0.6851,0.6858,0.6851,0.6851,0.6851,0.6851,0.6851,0.6865,0.6864,0.6865,0.6864,0.6864,0.6863,0.6862,0.6862,0.6861,0.6859,0.6859,0.6857,0.6855,0.6851,0.685,0.6847,0.6848,0.6846,0.6846,0.6846,0.6845,0.6853,0.6847,0.6847,0.6847,0.6847,0.6847,0,0.6855,0.6857,0.6856,0.6856,0.6855,0.6857,0.6857,0.6856,0.6854,0.6854,0.6852,0.685,0.6847,0.6846,0.6844,0.6842,0.6842,0.6841,0.6841,0.6841,0.6845,0.6846,0.6842,0.6842,0.6842,0.6842,0.6842,0.6842,0.685,0.6848,0.685,0.6848,0.6849,0.6847,0.6847,0.6847,0.6846,0.6844,0.6843,0.6843,0.6842,0.684,0.6838,0.6838,0.6837,0.6836,0.6836,0.684,0.684,0.6841,0.6841,0.6836,0.6836,0.6831,0.6831,0.6831]},{"header":{"parameterUnit":"m.s-1","parameterCategory":1,"la1":30.2991,"la2":30.254,"lo1":-89.0895,"lo2":-89.0444,"dy":0.0017,"dx":0.0017,"nx":28,"ny":28,"refTime":"2025-04-11T21:00:00:Z","depth":0,"parameterNumber":3,"parameterNumberName":"V-component_of_WINDS"},"data":[0,0,0,0,0,0,0,0,0,0,0,0,0,0,0,0,0,0,0,0,0,0,0,0,0,0,0,0,0,0,0,0,0,0,0,0,0,0,0,0,0,0,0,0,0,0,0,0,0,0,0,0,0,0,0,0,0,0,-5.6211,-5.6212,0,-5.6315,-5.6316,-5.6317,-5.6214,-5.621,-5.6206,-5.6202,-5.6306,-5.6313,-5.6319,0,0,0,0,0,0,0,0,0,0,0,0,0,-5.5921,-5.5927,-5.6211,-5.6212,-5.6213,-5.6314,-5.6316,-5.6317,-5.6214,-5.621,-5.6205,-5.62,-5.6304,-5.6312,-5.632,0,0,0,0,0,0,0,0,0,0,0,0,0,-5.6038,-5.5929,-5.621,-5.6174,-5.6172,-5.6314,-5.6316,-5.6318,-5.6216,-5.6209,-5.6203,-5.6198,-5.6301,-5.6311,-5.6321,-5.6503,0,0,-5.6351,-5.6355,0,0,0,0,0,0,0,0,-5.6032,-5.6049,-5.6178,-5.6177,-5.6175,-5.6245,-5.6252,-5.638,-5.6217,-5.6199,-5.6202,-5.6195,-5.6291,-5.6301,-5.6334,-5.6508,-5.6513,-5.6352,-5.6358,-5.6362,-5.6365,0,0,0,0,0,0,0,-5.6024,-5.6044,-5.6252,-5.618,-5.6178,-5.6152,-5.6162,-5.6276,-5.6278,-5.62,-5.6193,-5.6207,-5.6288,-5.6325,-5.6335,-5.6514,-5.6351,-5.636,-5.6366,-5.637,-5.6844,-5.6851,0,0,0,0,0,0,-5.602,-5.6038,-5.6248,-5.6255,-5.6087,-5.6162,-5.6173,-5.6229,-5.6276,-5.6278,-5.6212,-5.6201,-5.6311,-5.6324,-5.6339,-5.6557,-5.6362,-5.6371,-5.6377,-5.6838,-5.6846,-5.6853,0,0,0,0,0,0,-5.6014,-5.604,-5.6244,-5.6145,-5.6169,-5.6174,-5.6237,-5.6234,-5.627,-5.6285,-5.6284,-5.6249,-5.6306,-5.6325,-5.6464,-5.6559,-5.6375,-5.6384,-5.683,-5.684,-5.6849,-5.6994,0,0,0,0,0,0,-5.6006,-5.6038,-5.6108,-5.6147,-5.6174,-5.6368,-5.6242,-5.624,-5.6287,-5.6275,-5.6319,-5.6321,-5.6303,-5.6449,-5.6473,-5.6569,-5.6392,-5.6821,-5.6834,-5.6846,-5.6981,-5.7008,-5.7031,0,0,0,0,0,-5.5996,-5.6144,-5.6112,-5.6138,-5.6262,-5.6374,-5.639,-5.6367,-5.6295,-5.6366,-5.6375,-5.6319,-5.6544,-5.6465,-5.6491,-5.6591,-5.6815,-5.6831,-5.6845,-5.697,-5.7003,-5.703,0,0,0,0,0,0,-5.6116,-5.6148,-5.6114,-5.6278,-5.6324,-5.6356,-5.6444,-5.6402,-5.6469,-5.6455,-5.6423,-5.6434,-5.6581,-5.6599,-5.651,-5.677,-5.6668,-5.6689,-5.6754,-5.6785,-5.681,-5.6803,-5.64,0,0,0,0,0,-5.6161,-5.625,-5.6273,-5.6416,-5.6441,-5.6439,-5.6487,-5.6466,-5.6512,-5.6531,-5.655,-5.6597,-5.6678,-5.6732,-5.6807,-5.6982,-5.6991,-5.7064,-5.7089,-5.7109,-5.7129,-5.7224,-5.7257,-5.6903,-5.6902,-5.6902,0,0,-5.6256,-5.6285,-5.6343,-5.6441,-5.6474,-5.6567,-5.6456,-5.6559,-5.6627,-5.6546,-5.6679,-5.6695,-5.6744,-5.6903,-5.6973,-5.6922,-5.7228,-5.7129,-5.7145,-5.7153,-5.7243,-5.7276,-5.7306,-5.6913,-5.6911,-5.6909,0,0,-5.6477,-5.6507,-5.663,-5.6666,-5.6718,-5.6716,-5.6745,-5.6784,-5.6792,-5.6925,-5.6867,-5.6947,-5.7087,-5.7125,-5.7163,-5.7399,-5.735,-5.7424,-5.7555,-5.7648,-5.7676,-5.7701,-5.7787,-5.7818,-5.7442,-5.7443,-5.7443,0,-5.6588,-5.6726,-5.6699,-5.6807,-5.6852,-5.6783,-5.6908,-5.6943,-5.7017,-5.705,-5.6992,-5.7167,-5.7195,-5.7362,-5.742,-5.7452,-5.7485,-5.7419,-5.7675,-5.7699,-5.7722,-5.7803,-5.7835,-5.7451,-5.745,-5.7449,-5.7449,0,-5.6861,-5.6958,-5.7051,-5.7126,-5.7181,-5.7297,-5.7287,-5.7346,-5.7319,-5.7323,-5.746,-5.7491,-5.7572,-5.761,-5.7584,-5.7774,-5.7741,-5.7679,-5.7576,-5.7765,-5.7841,-5.7871,-5.7464,-5.7461,-5.7458,-5.7456,0,0,-5.7161,-5.7219,-5.7254,-5.7288,-5.734,-5.7414,-5.7526,-5.7606,-5.7659,-5.7711,-5.7805,-5.7926,-5.787,-5.7913,-5.7891,-5.7972,-5.8159,-5.7901,-5.7901,-5.7949,-5.8371,-5.8418,-5.8455,-5.8126,-5.8132,-5.8136,-5.8367,0,-5.7385,-5.7582,-5.756,-5.7747,-5.7837,-5.7773,-5.787,-5.7913,-5.7919,-5.7995,-5.8001,-5.8088,-5.8006,-5.8032,-5.811,-5.812,-5.8243,-5.8102,-5.8214,-5.8218,-5.8206,-5.8494,-5.8545,-5.8761,-5.8396,-5.8401,-5.8405,0,-5.7673,-5.7738,-5.7934,-5.7974,-5.801,-5.8099,-5.8172,-5.8245,-5.8292,-5.829,-5.8339,-5.8303,-5.8416,-5.8309,-5.8464,-5.8369,-5.8412,-5.8424,-5.8432,-5.8443,-5.8325,-5.8515,-5.8829,-5.8863,-5.8451,-5.8448,-5.8444,0,-5.7875,-5.801,-5.8146,-5.8176,-5.8225,-5.8289,-5.8312,-5.8353,-5.8403,-5.8466,-5.8498,-5.8573,-5.8614,-5.8672,-5.8657,-5.8581,-5.8816,-5.8708,-5.8819,-5.882,-5.8873,-5.8871,-5.9201,-5.8899,-5.8898,-5.8897,-5.8897,0,-5.8128,-5.8251,-5.8237,-5.8321,-5.8457,-5.8431,-5.8566,-5.8581,-5.8618,-5.8703,-5.8651,-5.8732,-5.8706,-5.8786,-5.8774,-5.8905,-5.8923,-5.8926,-5.8922,-5.8932,-5.8932,-5.8962,-5.8947,-5.8906,-5.8904,-5.8902,-5.8901,0,-5.8377,-5.8373,-5.8516,-5.8551,-5.8563,-5.8662,-5.8692,-5.877,-5.8772,-5.888,-5.8904,-5.8907,-5.8998,-5.8989,-5.909,-5.9082,-5.9245,-5.9222,-5.923,-5.9226,-5.9338,-5.9329,-5.9701,-5.9749,-5.9414,-5.9417,-5.942,0,-5.854,-5.8634,-5.8679,-5.8733,-5.8761,-5.8848,-5.8899,-5.8877,-5.8932,-5.8993,-5.9064,-5.915,-5.9219,-5.9367,-5.9378,-5.9455,-5.9434,-5.9559,-5.9446,-5.9453,-5.9439,-5.9434,-5.9444,-5.9583,-5.9586,-5.959,-5.9592,0,-5.8831,-5.8824,-5.89,-5.8977,-5.904,-5.9098,-5.9151,-5.9198,-5.918,-5.9245,-5.9338,-5.9391,-5.9495,-5.9582,-5.9655,-5.9677,-5.9633,-5.9628,-5.9658,-5.967,-5.9672,-5.9675,-5.9294,-5.962,-5.9617,-5.9615,-5.9613,-5.9612,-5.9044,-5.9124,-5.9169,-5.9256,-5.9294,-5.9345,-5.9421,-5.9433,-5.951,-5.9594,-5.9575,-5.9681,-5.9725,-5.9819,-5.9849,-5.9931,-5.9885,-5.9929,-5.994,-5.9952,-5.9966,-5.9658,-5.9944,-5.9943,-5.9942,-5.9941,-5.9941,0,-5.9333,-5.9359,-5.9439,-5.9516,-5.9585,-5.9536,-5.9592,-5.9653,-5.9747,-5.9792,-5.986,-5.9968,-6.0051,-6.0069,-6.0149,-6.0211,-6.0193,-6.0233,-6.0229,-6.0236,-6.0001,-5.9968,-6.0247,-6.0247,-6.0247,-6.0247,-6.0247,-6.0246,-5.9493,-5.9627,-5.9626,-5.9779,-5.9803,-5.9907,-5.9944,-5.999,-6.0027,-6.0149,-6.0219,-6.023,-6.0265,-6.0347,-6.0422,-6.0424,-6.0457,-6.0506,-6.0502,-6.0282,-6.0252,-6.0223,-6.0192,-6.0513,-6.0513,-6.0729,-6.0731,-6.0733]}]]